Find Starlink 31332

NORAD ID: 59566 Int'l Des: 2024-076 Owner: SPXS Country: US Constellation: starlink operational
LEOCIRCULAR

現在のビュー

3D地球を読み込み中...

About Starlink 31332

Starlink 31332 (NORAD 59566) is a starlink constellation satellite (v2 mini) launched Apr 23, 2024 by SPXS of US. It operates in LEO, CIRCULAR orbit with a mass of 730.00 kg.

Starlink 31332について

説明を読み込み中...

次回通過

Passes for default location (London). Set your location on the main map for personalized predictions.

高度履歴

Loading altitude history...

軌道要素

1 59566U 24076C 26193.50169745 .00001103 00000-0 49587-4 0 9990
2 59566 43.0045 23.9043 0001518 262.7008 97.3671 15.27585541125598
Epoch: Jul 12, 2026 • Age: 9 hours

現在のステータス

高度 490.7 km
遠地点 / 近地点 N/A
速度 7.62 km/s
衛星直下点 -30.89°S, 92.66°E
打ち上げ日 Apr 23, 2024
運用期間 2.2 years
タイプ internet

技術仕様

分類 Payload
質量 730.00 kg
乾燥質量 700.00 kg
総質量 730.00 kg
長さ 0.30 m
直径 4.10 m
スパン 29.00 m
形状 Box + pan
製造者 SPXS
バスタイプ Starlink V2M
フェーズステータス In Orbit
所有者/国 SPXS/US

Most Searched